Location: Oso Ridge
(35.0450°N, 108.0864°W)
Time: 15:48:00
(UTC-07:00)

Amateur Radio Satellites - All Passes

Search period start: 14 December 2017 15:17
Search period end: 15 December 2017 15:17
Location: Oso Ridge, 35.0450°N, 108.0864°W

Satellite Date Start Highest point End Downlink Frequencies (MHz)
Time Altitude Azimuth
BEESAT 14 Dec 15:22:42 15:27:20 49° 100° (E) 15:31:57 436.000
UKube-1 14 Dec 15:27:17 15:30:10 18° 292° (WNW) 15:33:03 .
NO-84 14 Dec 15:35:55 15:38:32 17° 237° (WSW) 15:41:12 435.350 FM
ITUPSAT 1 14 Dec 15:50:50 15:55:37 82° 283° (WNW) 16:00:24 437.325
M-CUBED/EXP-1 PRIME 14 Dec 15:55:42 15:58:16 16° 263° (W) 16:00:56 437.505
DOVE 4 14 Dec 16:10:01 16:15:13 60° 75° (ENE) 16:20:19 437.250
CUBESAT XI-V 14 Dec 16:26:07 16:30:51 88° 87° (E) 16:35:34 437.345
CUTE-I 14 Dec 16:27:33 16:30:26 15° 63° (ENE) 16:33:19 437.470
AO-7 14 Dec 16:30:32 16:36:25 21° 265° (W) 16:42:22 .
XW-2F 14 Dec 16:31:23 16:32:25 11° 67° (ENE) 16:33:26 145.980 - 146.000
MOZHAYETS 4 14 Dec 16:41:55 16:44:29 15° 294° (WNW) 16:47:03
ITAMSAT 1 14 Dec 16:42:36 16:44:50 13° 268° (W) 16:47:04 435.822/435.867
XW-2C 14 Dec 16:44:52 16:47:30 18° 70° (ENE) 16:50:08 145.795 - 145.815
SO-50 14 Dec 16:49:15 16:51:43 14° 313° (NW) 16:54:12 436.795
KKS-1 14 Dec 16:54:01 16:57:51 28° 97° (E) 17:01:40 437.445
ISS 14 Dec 16:58:33 16:59:10 10° 24° (NNE) 16:59:46 437.550
BEESAT 14 Dec 17:01:57 17:04:39 15° 295° (WNW) 17:07:20 436.000
HO-68 14 Dec 17:13:15 17:18:51 25° 62° (ENE) 17:24:26 435.675
CUTE 1.7 + AOD 2 14 Dec 17:17:13 17:18:35 11° 66° (ENE) 17:19:57 437.475
LilacSat-2 14 Dec 17:19:57 17:23:41 58° 76° (ENE) 17:27:27 437.200
RS-15 14 Dec 17:33:25 17:42:33 23° 327° (NNW) 17:51:37 29.354- 29.394
XW-2D 14 Dec 17:34:18 17:38:04 88° 78° (ENE) 17:41:53 145.860 - 145.880
STARS 14 Dec 17:37:01 17:40:57 32° 98° (E) 17:44:51 437.465
NUDT-PHONESAT 14 Dec 17:39:02 17:42:38 61° 76° (ENE) 17:46:18 437.300
O/OREOS (USA 219) 14 Dec 17:42:20 17:45:52 22° 62° (ENE) 17:49:22 437.305
KAITUO 1B 14 Dec 17:42:37 17:46:20 75° 77° (ENE) 17:50:06 145.475/437.950
XW-2B 14 Dec 17:50:15 17:53:57 58° 260° (W) 17:57:43 145.730 - 145.750
DOVE 4 14 Dec 17:50:25 17:53:07 14° 268° (W) 17:55:48 437.250
nSIGHT-1 14 Dec 17:51:18 17:54:12 30° 36° (NE) 17:57:05 .
XW-2F 14 Dec 18:02:31 18:06:04 41° 261° (W) 18:09:40 145.980 - 146.000
CUBEBUG 2 14 Dec 18:02:53 18:06:10 22° 71° (ENE) 18:09:26 437.445
UWE-3 14 Dec 18:04:21 18:05:59 12° 67° (ENE) 18:07:37 435.000/436.395/437.385
CUTE-I 14 Dec 18:04:34 18:09:53 64° 258° (WSW) 18:15:13 437.470
XW-2C 14 Dec 18:18:23 18:21:28 24° 264° (W) 18:24:35 145.795 - 145.815
PCSat 14 Dec 18:23:55 18:29:15 68° 113° (ESE) 18:34:38 145.827
SEEDS 14 Dec 18:26:51 18:30:52 44° 74° (ENE) 18:34:55 437.485
STRAND 1 14 Dec 18:27:32 18:29:51 13° 92° (E) 18:32:10 437.568
ZACube-1 14 Dec 18:29:29 18:30:59 12° 66° (ENE) 18:32:30 437.345
KKS-1 14 Dec 18:30:51 18:34:12 22° 291° (WNW) 18:37:33 437.445
ISS 14 Dec 18:32:56 18:36:12 64° 41° (NE) 18:39:27 437.550
AAUSAT CUBESAT 2 14 Dec 18:46:04 18:49:42 30° 72° (ENE) 18:53:22 437.432
Oscar 11 14 Dec 18:48:58 18:50:34 12° 66° (ENE) 18:52:11 .
CUTE 1.7 + AOD 2 14 Dec 18:49:45 18:53:53 52° 260° (W) 18:58:05 437.475
HO-68 14 Dec 18:59:02 19:06:03 57° 258° (WSW) 19:13:08 435.675
AO-73 14 Dec 19:01:20 19:04:41 25° 71° (ENE) 19:08:04 145.935
STARS 14 Dec 19:14:00 19:17:00 18° 292° (WNW) 19:20:00 437.465
O/OREOS (USA 219) 14 Dec 19:21:23 19:25:13 28° 257° (WSW) 19:29:01 437.305
nSIGHT-1 14 Dec 19:27:51 19:30:15 19° 231° (SW) 19:32:38 .
UWE-3 14 Dec 19:38:02 19:42:01 45° 261° (W) 19:45:59 435.000/436.395/437.385
CUBEBUG 2 14 Dec 19:39:14 19:42:39 24° 264° (W) 19:46:02 437.445
BEESAT 3 14 Dec 19:40:14 19:44:06 55° 116° (ESE) 19:48:01 437.485
XW-2A 14 Dec 19:46:39 19:49:42 34° 262° (W) 19:52:47 145.665 - 145.685
RS-15 14 Dec 19:56:46 20:01:56 13° 4° (N) 20:07:02 29.354- 29.394
ZACube-1 14 Dec 20:02:50 20:06:48 46° 261° (W) 20:10:48 437.345
STRAND 1 14 Dec 20:04:21 20:09:21 59° 286° (WNW) 20:14:21 437.568
SEEDS 14 Dec 20:05:03 20:06:43 12° 268° (W) 20:08:25 437.485
PCSat 14 Dec 20:09:47 20:13:08 16° 311° (NW) 20:16:30 145.827
FO-29 14 Dec 20:12:12 20:18:41 47° 98° (E) 20:24:22 435.910
BEESAT 2 14 Dec 20:20:34 20:24:16 38° 114° (ESE) 20:28:02 435.950
Oscar 11 14 Dec 20:22:01 20:26:12 51° 260° (W) 20:30:25 .
AAUSAT CUBESAT 2 14 Dec 20:22:19 20:25:09 18° 266° (W) 20:28:00 437.432
EO-88 14 Dec 20:26:43 20:27:40 11° 67° (ENE) 20:28:37 145.990 - 145.960
AO-73 14 Dec 20:37:45 20:40:51 21° 265° (W) 20:43:58 145.935
FALCONSAT 3 14 Dec 21:04:04 21:06:45 19° 152° (SSE) 21:09:27 435.103
TIGRISAT 14 Dec 21:14:05 21:17:28 22° 96° (E) 21:20:54 435.000
UNISAT 6 14 Dec 21:17:09 21:20:51 26° 97° (E) 21:24:34 437.425
BEESAT 3 14 Dec 21:20:12 21:21:57 12° 312° (NW) 21:23:43 437.485
DELFI C3 14 Dec 21:21:22 21:25:15 54° 260° (W) 21:29:11 145.870
Max Valier Satellite 14 Dec 21:29:40 21:33:16 62° 260° (W) 21:36:54 145.860
PRISM 14 Dec 21:54:09 21:56:47 17° 94° (E) 21:59:24 437.425
EO-88 14 Dec 21:57:30 22:00:53 38° 262° (W) 22:04:19 145.990 - 145.960
FO-29 14 Dec 21:57:56 22:03:14 25° 297° (WNW) 22:08:04 435.910
BEESAT 2 14 Dec 21:59:31 22:02:07 17° 310° (NW) 22:04:46 435.950
AO-85 14 Dec 21:59:41 22:03:30 65° 300° (WNW) 22:07:32 145.980
RS-15 14 Dec 22:10:25 22:20:23 30° 40° (NE) 22:29:51 29.354- 29.394
LO-87 14 Dec 22:27:21 22:30:44 45° 75° (ENE) 22:34:08 145.935 - 145.965
ESTCUBE 1 14 Dec 22:30:15 22:34:27 40° 73° (ENE) 22:38:41 437.505/2401.250
FALCONSAT 3 14 Dec 22:41:51 22:45:30 64° 165° (SSE) 22:49:09 435.103
TIGRISAT 14 Dec 22:50:24 22:54:05 27° 289° (WNW) 22:57:49 435.000
UNISAT 6 14 Dec 22:53:58 22:57:24 23° 290° (WNW) 23:00:53 437.425
AIST 2D 14 Dec 23:01:33 23:04:54 38° 98° (E) 23:08:12 435.315
SPROUT 14 Dec 23:06:31 23:09:46 22° 70° (ENE) 23:13:00 437.525
NANOSAT C BR1 14 Dec 23:13:58 23:16:09 14° 93° (E) 23:18:19 145.865
EO-79 14 Dec 23:28:21 23:31:47 24° 96° (E) 23:35:13 145.935-145.965
PRISM 14 Dec 23:28:28 23:32:04 30° 289° (WNW) 23:35:39 437.425
SO-50 14 Dec 23:41:01 23:44:49 24° 52° (NE) 23:48:37 436.795
POLYITAN 1 14 Dec 23:50:54 23:54:58 45° 99° (E) 23:59:02 437.675
VELOX 1 15 Dec 00:02:28 00:06:50 60° 75° (ENE) 00:11:13 145.980
ESTCUBE 1 15 Dec 00:08:41 00:11:23 16° 267° (W) 00:14:06 437.505/2401.250
QB50P2 15 Dec 00:16:31 00:20:45 74° 284° (WNW) 00:24:58 145.880/145.840
FALCONSAT 3 15 Dec 00:20:53 00:24:35 82° 2° (N) 00:28:15 435.103
DUCHIFAT 1 15 Dec 00:21:11 00:25:22 82° 100° (E) 00:29:35 145.980
RS-15 15 Dec 00:22:31 00:34:14 82° 244° (WSW) 00:45:19 29.354- 29.394
Oscar 19 15 Dec 00:26:49 00:28:28 11° 91° (E) 00:30:07 437.125/150
SPROUT 15 Dec 00:41:55 00:45:28 26° 263° (W) 00:49:01 437.525
UKube-1 15 Dec 00:42:18 00:45:24 20° 68° (ENE) 00:48:30 .
NANOSAT C BR1 15 Dec 00:48:03 00:51:58 39° 287° (WNW) 00:55:52 145.865
DX 1 15 Dec 00:57:23 01:01:35 49° 74° (ENE) 01:05:49 434.975-435.025
BUGSAT 1 15 Dec 01:00:39 01:04:34 48° 100° (E) 01:08:31 437.445
EO-79 15 Dec 01:04:05 01:07:24 23° 290° (WNW) 01:10:43 145.935-145.965
50 SAT 15 Dec 01:05:17 01:08:25 63° 76° (ENE) 01:11:33 437.505
Gurwin Techsat 1B 15 Dec 01:08:50 01:13:04 24° 95° (E) 01:17:16 435.225
SO-50 15 Dec 01:21:02 01:25:19 35° 247° (WSW) 01:29:37 436.795
POLYITAN 1 15 Dec 01:28:24 01:30:19 13° 293° (WNW) 01:32:13 437.675
AO-91 15 Dec 01:33:19 01:36:40 53° 100° (E) 01:39:59 145.960
FALCONSAT 3 15 Dec 02:00:01 02:03:38 60° 196° (SSW) 02:07:15 435.103
MOZHAYETS 4 15 Dec 02:02:05 02:06:03 30° 71° (ENE) 02:10:01
YUBILEINY 15 Dec 02:02:15 02:09:34 31° 84° (E) 02:16:53 435.215
Oscar 19 15 Dec 02:03:00 02:08:11 69° 285° (WNW) 02:13:21 437.125/150
UKube-1 15 Dec 02:17:21 02:21:10 30° 262° (W) 02:25:00 .
BEESAT 15 Dec 02:25:49 02:30:13 39° 72° (ENE) 02:34:38 436.000
DX 1 15 Dec 02:36:19 02:37:59 12° 267° (W) 02:39:39 434.975-435.025
JUGNU 15 Dec 02:36:54 02:38:05 11° 165° (SSE) 02:39:17 437.505
BUGSAT 1 15 Dec 02:38:16 02:39:28 11° 294° (WNW) 02:40:39 437.445
RS-15 15 Dec 02:38:44 02:44:37 16° 263° (W) 02:50:23 29.354- 29.394
AO-7 15 Dec 02:41:03 02:47:58 28° 97° (E) 02:54:50 .
Gurwin Techsat 1B 15 Dec 02:48:13 02:53:02 36° 290° (WNW) 02:57:50 435.225
ITUPSAT 1 15 Dec 02:54:01 02:58:46 80° 76° (ENE) 03:03:31 437.325
PCSat 15 Dec 03:15:27 03:20:04 28° 55° (NE) 03:24:39 145.827
ITAMSAT 1 15 Dec 03:16:28 03:20:55 29° 97° (E) 03:25:20 435.822/435.867
CUBESAT XI-V 15 Dec 03:25:45 03:30:18 58° 75° (ENE) 03:34:54 437.345
M-CUBED/EXP-1 PRIME 15 Dec 03:35:18 03:39:38 50° 104° (ESE) 03:43:39 437.505
MOZHAYETS 4 15 Dec 03:39:45 03:43:10 21° 265° (W) 03:46:36
FALCONSAT 3 15 Dec 03:39:49 03:42:21 18° 209° (SSW) 03:44:52 435.103
KKS-1 15 Dec 03:49:26 03:52:32 19° 68° (ENE) 03:55:39 437.445
YUBILEINY 15 Dec 03:57:23 04:05:51 51° 282° (WNW) 04:14:25 435.215
BEESAT 3 15 Dec 04:01:16 04:03:01 13° 48° (NE) 04:04:45 437.485
BEESAT 15 Dec 04:04:56 04:08:05 18° 266° (W) 04:11:15 436.000
DOVE 4 15 Dec 04:13:50 04:16:49 18° 93° (E) 04:19:41 437.250
JUGNU 15 Dec 04:22:41 04:26:19 17° 175° (S) 04:29:58 437.505
STARS 15 Dec 04:30:51 04:34:05 20° 68° (ENE) 04:37:18 437.465
AO-7 15 Dec 04:32:52 04:41:00 57° 293° (WNW) 04:49:06 .
BEESAT 2 15 Dec 04:43:38 04:43:59 10° 46° (NE) 04:44:22 435.950
ITAMSAT 1 15 Dec 04:55:51 05:00:16 29° 291° (WNW) 05:04:39 435.822/435.867
PCSat 15 Dec 04:58:34 05:03:28 36° 251° (WSW) 05:08:20 145.827
CUBESAT XI-V 15 Dec 05:06:31 05:07:59 11° 269° (W) 05:09:28 437.345
M-CUBED/EXP-1 PRIME 15 Dec 05:11:10 05:13:27 14° 300° (WNW) 05:15:41 437.505
NO-84 15 Dec 05:11:23 05:13:16 16° 123° (ESE) 05:15:12 435.350 FM
XW-2D 15 Dec 05:11:50 05:13:12 12° 92° (E) 05:14:33 145.860 - 145.880
KKS-1 15 Dec 05:24:45 05:28:48 34° 262° (W) 05:32:52 437.445
XW-2B 15 Dec 05:26:35 05:29:13 17° 94° (E) 05:31:50 145.730 - 145.750
BEESAT 3 15 Dec 05:37:02 05:40:50 51° 245° (WSW) 05:44:33 437.485
XW-2F 15 Dec 05:37:48 05:40:53 23° 96° (E) 05:43:56 145.980 - 146.000
STRAND 1 15 Dec 05:40:26 05:43:12 15° 64° (ENE) 05:45:57 437.568
DOVE 4 15 Dec 05:50:40 05:54:34 31° 289° (WNW) 05:58:18 437.250
XW-2C 15 Dec 05:53:10 05:56:49 40° 98° (E) 06:00:25 145.795 - 145.815
STARS 15 Dec 06:06:19 06:10:11 30° 262° (W) 06:14:03 437.465
JUGNU 15 Dec 06:10:56 06:14:35 17° 185° (S) 06:18:16 437.505
BEESAT 2 15 Dec 06:18:11 06:22:11 73° 243° (WSW) 06:26:06 435.950
FO-29 15 Dec 06:20:46 06:25:53 20° 61° (ENE) 06:31:02 435.910
CUTE-I 15 Dec 06:24:51 06:30:10 68° 102° (ESE) 06:35:26 437.470
LilacSat-2 15 Dec 06:30:12 06:34:01 55° 284° (WNW) 06:37:48 437.200
HO-68 15 Dec 06:30:34 06:36:58 34° 98° (E) 06:43:19 435.675
AO-7 15 Dec 06:30:47 06:31:57 10° 312° (NW) 06:33:06 .
AO-85 15 Dec 06:32:48 06:37:26 43° 57° (ENE) 06:42:21 145.980
CUTE 1.7 + AOD 2 15 Dec 06:37:51 06:41:42 32° 97° (E) 06:45:32 437.475
XW-2D 15 Dec 06:43:55 06:47:30 38° 286° (WNW) 06:51:03 145.860 - 145.880
NUDT-PHONESAT 15 Dec 06:45:35 06:49:18 57° 284° (WNW) 06:52:57 437.300
NO-84 15 Dec 06:47:41 06:50:15 26° 320° (NW) 06:52:58 435.350 FM
KAITUO 1B 15 Dec 06:50:29 06:54:08 46° 285° (WNW) 06:57:45 145.475/437.950
SRMSAT 15 Dec 06:59:20 07:02:59 17° 173° (S) 07:06:38 437.500
XW-2B 15 Dec 07:00:08 07:03:20 25° 288° (WNW) 07:06:31 145.730 - 145.750
XW-2A 15 Dec 07:11:44 07:13:52 15° 95° (E) 07:15:59 145.665 - 145.685
XW-2F 15 Dec 07:12:00 07:14:48 19° 290° (WNW) 07:17:34 145.980 - 146.000
STRAND 1 15 Dec 07:16:48 07:21:50 58° 259° (WSW) 07:26:53 437.568
XW-2C 15 Dec 07:29:08 07:30:34 12° 293° (WNW) 07:31:59 145.795 - 145.815
UWE-3 15 Dec 07:30:04 07:34:13 42° 99° (E) 07:38:26 435.000/436.395/437.385
CUBEBUG 2 15 Dec 07:31:36 07:35:55 84° 103° (ESE) 07:40:20 437.445
SEEDS 15 Dec 07:49:01 07:53:11 57° 284° (WNW) 07:57:18 437.485
O/OREOS (USA 219) 15 Dec 07:50:31 07:54:54 47° 106° (ESE) 07:59:18 437.305
ZACube-1 15 Dec 07:53:41 07:57:49 39° 98° (E) 08:02:01 437.345
JUGNU 15 Dec 08:01:33 08:02:50 11° 195° (SSW) 08:04:07 437.505
FO-29 15 Dec 08:02:13 08:09:55 84° 257° (WSW) 08:17:50 435.910
AAUSAT CUBESAT 2 15 Dec 08:05:48 08:09:59 90° 111° (ESE) 08:14:07 437.432
CUTE-I 15 Dec 08:07:03 08:09:34 14° 297° (WNW) 08:12:05 437.470
TIGRISAT 15 Dec 08:11:09 08:13:05 13° 67° (ENE) 08:14:59 435.000
Oscar 11 15 Dec 08:12:22 08:16:23 35° 98° (E) 08:20:22 .
AO-85 15 Dec 08:13:55 08:17:38 21° 250° (WSW) 08:21:29 145.980
UNISAT 6 15 Dec 08:13:56 08:16:29 16° 68° (ENE) 08:19:01 437.425
CUTE 1.7 + AOD 2 15 Dec 08:14:21 08:17:15 18° 291° (WNW) 08:20:09 437.475
HO-68 15 Dec 08:18:07 08:24:38 40° 293° (WNW) 08:31:08 435.675
AO-73 15 Dec 08:27:01 08:31:25 88° 107° (ESE) 08:35:54 145.935
XW-2A 15 Dec 08:43:47 08:46:28 22° 288° (WNW) 08:49:10 145.665 - 145.685
SRMSAT 15 Dec 08:47:31 08:51:27 18° 183° (S) 08:55:22 437.500
DELFI C3 15 Dec 09:01:45 09:04:50 22° 96° (E) 09:07:54 145.870
Max Valier Satellite 15 Dec 09:03:40 09:05:47 14° 94° (E) 09:07:54 145.860
UWE-3 15 Dec 09:07:52 09:10:17 15° 292° (WNW) 09:12:46 435.000/436.395/437.385
EO-88 15 Dec 09:29:23 09:32:10 20° 96° (E) 09:34:56 145.990 - 145.960
ZACube-1 15 Dec 09:31:05 09:33:44 16° 292° (WNW) 09:36:25 437.345
O/OREOS (USA 219) 15 Dec 09:31:53 09:34:33 15° 301° (WNW) 09:37:13 437.305
TIGRISAT 15 Dec 09:45:12 09:49:20 46° 261° (W) 09:53:26 435.000
UNISAT 6 15 Dec 09:48:51 09:52:52 37° 262° (W) 09:56:50 437.425
Oscar 11 15 Dec 09:49:22 09:52:12 17° 292° (WNW) 09:55:02 .
FO-29 15 Dec 09:52:15 09:55:46 14° 272° (W) 09:59:23 435.910
PRISM 15 Dec 10:13:21 10:17:29 72° 258° (WSW) 10:21:39 437.425
EO-79 15 Dec 10:19:08 10:20:52 12° 66° (ENE) 10:22:36 145.935-145.965
nSIGHT-1 15 Dec 10:25:39 10:28:45 51° 135° (SE) 10:31:53 .
ESTCUBE 1 15 Dec 10:28:26 10:29:31 11° 91° (E) 10:30:36 437.505/2401.250
Max Valier Satellite 15 Dec 10:36:22 10:39:36 28° 287° (WNW) 10:42:50 145.860
DELFI C3 15 Dec 10:36:25 10:39:26 21° 290° (WNW) 10:42:26 145.870
SRMSAT 15 Dec 10:37:28 10:39:52 12° 193° (SSW) 10:42:17 437.500
POLYITAN 1 15 Dec 10:40:39 10:43:54 22° 70° (ENE) 10:47:09 437.675
EO-88 15 Dec 11:02:56 11:05:39 20° 289° (WNW) 11:08:20 145.990 - 145.960
AIST 2D 15 Dec 11:04:54 11:08:14 43° 261° (W) 11:11:37 435.315
QB50P2 15 Dec 11:05:29 11:09:32 50° 74° (ENE) 11:13:36 145.880/145.840
DUCHIFAT 1 15 Dec 11:09:33 11:13:21 36° 73° (ENE) 11:17:11 145.980
ISS 15 Dec 11:10:19 11:13:34 64° 318° (NW) 11:16:50 437.550
LO-87 15 Dec 11:30:00 11:33:33 85° 281° (WNW) 11:37:06 145.935 - 145.965
NANOSAT C BR1 15 Dec 11:36:03 11:40:14 86° 257° (WSW) 11:44:25 145.865
Oscar 19 15 Dec 11:40:31 11:42:53 13° 63° (ENE) 11:45:13 437.125/150
BUGSAT 1 15 Dec 11:47:37 11:50:43 21° 70° (ENE) 11:53:47 437.445
EO-79 15 Dec 11:52:09 11:56:10 46° 260° (W) 12:00:12 145.935-145.965
VELOX 1 15 Dec 11:57:10 11:59:31 14° 93° (E) 12:01:50 145.980
ESTCUBE 1 15 Dec 12:02:09 12:06:37 58° 285° (WNW) 12:11:03 437.505/2401.250
nSIGHT-1 15 Dec 12:03:04 12:05:10 16° 330° (NNW) 12:07:17 .
POLYITAN 1 15 Dec 12:16:07 12:19:32 24° 264° (W) 12:22:57 437.675
YUBILEINY 15 Dec 12:19:27 12:21:37 11° 62° (ENE) 12:23:46 435.215
AO-91 15 Dec 12:26:06 12:30:36 36° 74° (ENE) 12:34:44 145.960
Gurwin Techsat 1B 15 Dec 12:26:43 12:31:11 28° 69° (ENE) 12:35:41 435.225
SPROUT 15 Dec 12:29:39 12:33:51 64° 101° (E) 12:38:03 437.525
RS-15 15 Dec 12:32:24 12:40:31 21° 100° (E) 12:48:36 29.354- 29.394
QB50P2 15 Dec 12:44:46 12:45:33 10° 268° (W) 12:46:21 145.880/145.840
DUCHIFAT 1 15 Dec 12:46:49 12:49:06 14° 266° (W) 12:51:24 145.980
ISS 15 Dec 12:49:59 12:50:36 10° 336° (NNW) 12:51:14 437.550
DX 1 15 Dec 12:51:29 12:52:21 10° 92° (E) 12:53:14 434.975-435.025
Oscar 19 15 Dec 13:16:29 13:21:34 66° 259° (WSW) 13:26:42 437.125/150
NO-84 15 Dec 13:21:35 13:25:08 35° 42° (NE) 13:28:53 435.350 FM
BUGSAT 1 15 Dec 13:22:39 13:25:55 23° 264° (W) 13:29:09 437.445
VELOX 1 15 Dec 13:31:57 13:36:06 41° 287° (WNW) 13:40:12 145.980
AO-7 15 Dec 13:36:51 13:43:46 31° 60° (ENE) 13:50:42 .
SO-50 15 Dec 13:53:55 13:56:08 14° 108° (ESE) 13:58:22 436.795
50 SAT 15 Dec 13:56:03 13:59:11 85° 97° (E) 14:02:19 437.505
AO-91 15 Dec 14:03:22 14:07:00 20° 264° (W) 14:10:26 145.960
Gurwin Techsat 1B 15 Dec 14:06:21 14:10:59 31° 263° (W) 14:15:40 435.225
UKube-1 15 Dec 14:06:49 14:11:01 52° 101° (E) 14:15:12 .
YUBILEINY 15 Dec 14:11:16 14:20:05 70° 82° (E) 14:28:47 435.215
M-CUBED/EXP-1 PRIME 15 Dec 14:16:59 14:20:55 36° 67° (ENE) 14:25:04 437.505
DX 1 15 Dec 14:24:34 14:28:48 54° 286° (WNW) 14:33:01 434.975-435.025
BEESAT 15 Dec 14:30:50 14:32:55 13° 93° (E) 14:34:59 436.000
ITAMSAT 1 15 Dec 14:31:11 14:35:47 33° 70° (ENE) 14:40:24 435.822/435.867
RS-15 15 Dec 14:39:02 14:51:22 90° 316° (NW) 15:03:43 29.354- 29.394
ITUPSAT 1 15 Dec 14:58:11 15:02:10 26° 97° (E) 15:06:07 437.325
NO-84 15 Dec 14:59:07 15:02:18 23° 235° (SW) 15:05:36 435.350 FM
